datetime,power release
1977-03-14,185.533333
1977-03-15,203.683333
1977-03-16,35.2916667
1977-03-17,333.758333
1977-03-18,357.958333
1977-03-19,380.141667
1977-03-20,353.925
1977-03-21,295.441667
1977-03-22,300.483333
1977-03-23,309.558333
1977-03-24,312.583333
1977-03-25,314.6
1977-03-26,315.608333
1977-03-27,416.441667
1977-03-28,596.933333
1977-03-29,510.216667
1977-03-30,535.425
1977-03-31,766.333333
1977-04-01,897.416667
1977-04-02,816.75
1977-04-03,811.708333
1977-04-04,811.708333
1977-04-05,811.708333
1977-04-06,776.416667
1977-04-07,1008.33333
1977-04-08,1134.375
1977-04-09,1199.91667
1977-04-10,1240.25
1977-04-11,1265.45833
1977-04-12,1109.16667
1977-04-13,1133.36667
1977-04-14,1109.16667
1977-04-15,1109.16667
1977-04-16,1109.16667
1977-04-17,1109.16667
1977-04-18,1109.16667
1977-04-19,1184.79167
1977-04-20,1189.83333
1977-04-21,1189.83333
1977-04-22,1124.29167
1977-04-23,1124.29167
1977-04-24,1169.66667
1977-04-25,1169.66667
1977-04-26,1169.66667
1977-04-27,1169.66667
1977-04-28,1169.66667
1977-04-29,1169.66667
1977-04-30,1169.66667
1977-05-01,1169.66667
1977-05-02,1199.91667
1977-05-03,1194.875
1977-05-04,1189.83333
1977-05-05,1189.83333
1977-05-06,1194.875
1977-05-07,1215.04167
1977-05-08,1240.25
1977-05-09,1255.375
1977-05-10,1265.45833
1977-05-11,1285.625
1977-05-12,1255.375
1977-05-13,1210.0
1977-05-14,1230.16667
1977-05-15,1237.225
1977-05-16,1242.26667
1977-05-17,1245.29167
1977-05-18,1245.29167
1977-05-19,1220.08333
1977-05-20,1246.3
1977-05-21,1250.33333
1977-05-22,1210.0
1977-05-23,1220.08333
1977-05-24,1230.16667
1977-05-25,1230.16667
1977-05-26,1235.20833
1977-05-27,1235.20833
1977-05-28,1235.20833
1977-05-29,1225.125
1977-05-30,1199.91667
1977-05-31,1199.91667
1977-06-01,1218.06667
1977-06-02,1185.8
1977-06-03,1228.15
1977-06-04,1239.24167
1977-06-05,1239.24167
1977-06-06,1234.2
1977-06-07,1235.20833
1977-06-08,1238.23333
1977-06-09,1244.28333
1977-06-10,1221.09167
1977-06-11,1225.125
1977-06-12,1225.125
1977-06-13,1191.85
1977-06-14,1183.78333
1977-06-15,1184.79167
1977-06-16,1180.75833
1977-06-17,1184.79167
1977-06-18,1184.79167
1977-06-19,1164.625
1977-06-20,1195.88333
1977-06-21,1216.05
1977-06-22,1216.05
1977-06-23,1243.275
1977-06-24,1237.225
1977-06-25,1247.30833
1977-06-26,1268.48333
1977-06-27,1275.54167
1977-06-28,1264.45
1977-06-29,1215.04167
1977-06-30,1207.98333
1977-07-01,1210.0
1977-07-02,1210.0
1977-07-03,1210.0
1977-07-04,1210.0
1977-07-05,1210.0
1977-07-06,1210.0
1977-07-07,1210.0
1977-07-08,1210.0
1977-07-09,1210.0
1977-07-10,1210.0
1977-07-11,1210.0
1977-07-12,1210.0
1977-07-13,1210.0
1977-07-14,1210.0
1977-07-15,1210.0
1977-07-16,1210.0
1977-07-17,1210.0
1977-07-18,1210.0
1977-07-19,1210.0
1977-07-20,1210.0
1977-07-21,1210.0
1977-07-22,1210.0
1977-07-23,1210.0
1977-07-24,1210.0
1977-07-25,1210.0
1977-07-26,1210.0
1977-07-27,1210.0
1977-07-28,1210.0
1977-07-29,1210.0
1977-07-30,1210.0
1977-07-31,1210.0
1977-08-01,1210.0
1977-08-02,1210.0
1977-08-03,1210.0
1977-08-04,1210.0
1977-08-05,1210.0
1977-08-06,1210.0
1977-08-07,1210.0
1977-08-08,1210.0
1977-08-09,1210.0
1977-08-10,1210.0
1977-08-11,1210.0
1977-08-12,1210.0
1977-08-13,1210.0
1977-08-14,1210.0
1977-08-15,1210.0
1977-08-16,1210.0
1977-08-17,1210.0
1977-08-18,1210.0
1977-08-19,1210.0
1977-08-20,1210.0
1977-08-21,1210.0
1977-08-22,1210.0
1977-08-23,1210.0
1977-08-24,1210.0
1977-08-25,1164.625
1977-08-26,1104.125
1977-08-27,1078.91667
1977-08-28,1078.91667
1977-08-29,1078.91667
1977-08-30,1078.91667
1977-08-31,1078.91667
1977-09-01,1078.91667
1977-09-02,907.5
1977-09-03,877.25
1977-09-04,877.25
1977-09-05,877.25
1977-09-06,877.25
1977-09-07,877.25
1977-09-08,877.25
1977-09-09,806.666667
1977-09-10,756.25
1977-09-11,756.25
1977-09-12,695.75
1977-09-13,554.583333
1977-09-14,554.583333
1977-09-15,554.583333
1977-09-16,554.583333
1977-09-17,554.583333
1977-09-18,554.583333
1977-09-19,554.583333
1977-09-20,584.833333
1977-09-21,605.0
1977-09-22,605.0
1977-09-23,605.0
1977-09-24,605.0
1977-09-25,605.0
1977-09-26,605.0
1977-09-27,605.0
1977-09-28,655.416667
1977-09-29,655.416667
1977-09-30,655.416667
1977-10-01,655.416667
1977-10-02,655.416667
1977-10-03,655.416667
1977-10-04,685.666667
1977-10-05,705.833333
1977-10-06,705.833333
1977-10-07,665.5
1977-10-08,635.25
1977-10-09,635.25
1977-10-10,635.25
1977-10-11,635.25
1977-10-12,635.25
1977-10-13,635.25
1977-10-14,635.25
1977-10-15,635.25
1977-10-16,635.25
1977-10-17,635.25
1977-10-18,635.25
1977-10-19,635.25
1977-10-20,635.25
1977-10-21,635.25
1977-10-22,635.25
1977-10-23,635.25
1977-10-24,635.25
1977-10-25,584.833333
1977-10-26,584.833333
1977-10-27,584.833333
1977-10-28,584.833333
1977-10-29,584.833333
1977-10-30,584.833333
1977-10-31,504.166667
1977-11-01,352.916667
1977-11-02,352.916667
1977-11-03,352.916667
1977-11-04,352.916667
1977-11-05,352.916667
1977-11-06,352.916667
1977-11-07,352.916667
1977-11-08,352.916667
1977-11-09,352.916667
1977-11-10,352.916667
1977-11-11,352.916667
1977-11-12,352.916667
1977-11-13,352.916667
1977-11-14,352.916667
1977-11-15,352.916667
1977-11-16,352.916667
1977-11-17,352.916667
1977-11-18,352.916667
1977-11-19,352.916667
1977-11-20,352.916667
1977-11-21,352.916667
1977-11-22,352.916667
1977-11-23,352.916667
1977-11-24,352.916667
1977-11-25,352.916667
1977-11-26,352.916667
1977-11-27,352.916667
1977-11-28,352.916667
1977-11-29,352.916667
1977-11-30,352.916667
1977-12-01,352.916667
1977-12-02,352.916667
1977-12-03,352.916667
1977-12-04,352.916667
1977-12-05,352.916667
1977-12-06,352.916667
1977-12-07,352.916667
1977-12-08,352.916667
1977-12-09,352.916667
1977-12-10,352.916667
1977-12-11,352.916667
1977-12-12,352.916667
1977-12-13,352.916667
1977-12-14,352.916667
1977-12-15,352.916667
1977-12-16,352.916667
1977-12-17,352.916667
1977-12-18,352.916667
1977-12-19,352.916667
1977-12-20,352.916667
1977-12-21,352.916667
1977-12-22,352.916667
1977-12-23,352.916667
1977-12-24,352.916667
1977-12-25,352.916667
1977-12-26,352.916667
1977-12-27,352.916667
1977-12-28,352.916667
1977-12-29,352.916667
1977-12-30,352.916667
1977-12-31,352.916667
1978-01-01,352.916667
1978-01-02,352.916667
1978-01-03,352.916667
1978-01-04,352.916667
1978-01-05,352.916667
1978-01-06,287.375
1978-01-07,201.666667
1978-01-08,201.666667
1978-01-09,403.333333
1978-01-10,504.166667
1978-01-11,504.166667
1978-01-12,504.166667
1978-01-13,504.166667
1978-01-14,504.166667
1978-01-15,504.166667
1978-01-16,504.166667
1978-01-17,504.166667
1978-01-18,504.166667
1978-01-19,504.166667
1978-01-20,504.166667
1978-01-21,504.166667
1978-01-22,504.166667
1978-01-23,504.166667
1978-01-24,504.166667
1978-01-25,504.166667
1978-01-26,504.166667
1978-01-27,504.166667
1978-01-28,504.166667
1978-01-29,504.166667
1978-01-30,504.166667
1978-01-31,504.166667
1978-02-01,504.166667
1978-02-02,504.166667
1978-02-03,504.166667
1978-02-04,504.166667
1978-02-05,504.166667
1978-02-06,504.166667
1978-02-07,504.166667
1978-02-08,504.166667
1978-02-09,504.166667
1978-02-10,504.166667
1978-02-11,504.166667
1978-02-12,504.166667
1978-02-13,504.166667
1978-02-14,504.166667
1978-02-15,504.166667
1978-02-16,504.166667
1978-02-17,504.166667
1978-02-18,504.166667
1978-02-19,504.166667
1978-02-20,504.166667
1978-02-21,504.166667
1978-02-22,504.166667
1978-02-23,504.166667
1978-02-24,504.166667
1978-02-25,504.166667
1978-02-26,504.166667
1978-02-27,504.166667
1978-02-28,504.166667
1978-03-01,504.166667
1978-03-02,504.166667
1978-03-03,504.166667
1978-03-04,504.166667
1978-03-05,504.166667
1978-03-06,504.166667
1978-03-07,504.166667
1978-03-08,504.166667
1978-03-09,504.166667
1978-03-10,504.166667
1978-03-11,504.166667
1978-03-12,504.166667
1978-03-13,504.166667
1978-03-14,504.166667
1978-03-15,504.166667
1978-03-16,504.166667
1978-03-17,504.166667
1978-03-18,504.166667
1978-03-19,504.166667
1978-03-20,504.166667
1978-03-21,504.166667
1978-03-22,504.166667
1978-03-23,504.166667
1978-03-24,504.166667
1978-03-25,504.166667
1978-03-26,504.166667
1978-03-27,504.166667
1978-03-28,504.166667
1978-03-29,504.166667
1978-03-30,504.166667
1978-03-31,504.166667
1978-04-01,655.416667
1978-04-02,655.416667
1978-04-03,655.416667
1978-04-04,831.875
1978-04-05,1020.43333
1978-04-06,1081.4375
1978-04-07,1078.91667
1978-04-08,1078.91667
1978-04-09,1078.91667
1978-04-10,1023.45833
1978-04-11,1028.5
1978-04-12,1028.5
1978-04-13,1099.08333
1978-04-14,1149.5
1978-04-15,1179.75
1978-04-16,1179.75
1978-04-17,1179.75
1978-04-18,1179.75
1978-04-19,1179.75
1978-04-20,1210.0
1978-04-21,1230.16667
1978-04-22,1230.16667
1978-04-23,1230.16667
1978-04-24,1230.16667
1978-04-25,1230.16667
1978-04-26,1230.16667
1978-04-27,1230.16667
1978-04-28,1230.16667
1978-04-29,1230.16667
1978-04-30,1230.16667
1978-05-01,1230.16667
1978-05-02,1261.92917
1978-05-03,1250.33333
1978-05-04,1220.08333
1978-05-05,1220.08333
1978-05-06,1220.08333
1978-05-07,1220.08333
1978-05-08,1094.04167
1978-05-09,1018.41667
1978-05-10,1018.41667
1978-05-11,1018.41667
1978-05-12,1018.41667
1978-05-13,1018.41667
1978-05-14,1018.41667
1978-05-15,907.5
1978-05-16,962.958333
1978-05-17,1411.66667
1978-05-18,1613.33333
1978-05-19,1472.16667
1978-05-20,1210.0
1978-05-21,1210.0
1978-05-22,1210.0
1978-05-23,1210.0
1978-05-24,1003.29167
1978-05-25,1124.29167
1978-05-26,1386.45833
1978-05-27,1512.5
1978-05-28,1512.5
1978-05-29,1512.5
1978-05-30,1376.375
1978-05-31,1260.41667
1978-06-01,1260.41667
1978-06-02,1260.41667
1978-06-03,1260.41667
1978-06-04,1260.41667
1978-06-05,1260.41667
1978-06-06,1260.41667
1978-06-07,1184.79167
1978-06-08,1043.625
1978-06-09,1078.91667
1978-06-10,1159.58333
1978-06-11,1159.58333
1978-06-12,1709.125
1978-06-13,2097.33333
1978-06-14,2218.33333
1978-06-15,2097.33333
1978-06-16,2198.16667
1978-06-17,2198.16667
1978-06-18,2198.16667
1978-06-19,2198.16667
1978-06-20,2198.16667
1978-06-21,2198.16667
1978-06-22,2198.16667
1978-06-23,2198.16667
1978-06-24,2198.16667
1978-06-25,2198.16667
1978-06-26,2198.16667
1978-06-27,2198.16667
1978-06-28,2258.66667
1978-06-29,2601.5
1978-06-30,3206.5
1978-07-01,2425.04167
1978-07-02,2742.66667
1978-07-03,2747.70833
1978-07-04,2762.83333
1978-07-05,2382.1875
1978-07-06,1815.0
1978-07-07,1497.375
1978-07-08,1210.0
1978-07-09,1210.0
1978-07-10,1210.0
1978-07-11,1285.625
1978-07-12,1213.52917
1978-07-13,1502.41667
1978-07-14,1244.28333
1978-07-15,1210.0
1978-07-16,1250.33333
1978-07-17,1547.79167
1978-07-18,1593.16667
1978-07-19,2520.83333
1978-07-20,2520.83333
1978-07-21,2520.83333
1978-07-22,2520.83333
1978-07-23,2520.83333
1978-07-24,2107.41667
1978-07-25,1825.08333
1978-07-26,1774.66667
1978-07-27,1724.25
1978-07-28,1734.33333
1978-07-29,1774.66667
1978-07-30,1774.66667
1978-07-31,1401.58333
1978-08-01,1210.0
1978-08-02,1240.25
1978-08-03,1210.0
1978-08-04,1210.0
1978-08-05,1210.0
1978-08-06,1210.0
1978-08-07,1210.0
1978-08-08,1210.0
1978-08-09,1492.33333
1978-08-10,1774.66667
1978-08-11,1734.33333
1978-08-12,1578.04167
1978-08-13,1583.08333
1978-08-14,1588.125
1978-08-15,1532.66667
1978-08-16,1542.75
1978-08-17,1542.75
1978-08-18,1542.75
1978-08-19,1507.45833
1978-08-20,1673.83333
1978-08-21,1581.57083
1978-08-22,1488.80417
1978-08-23,1532.66667
1978-08-24,1557.875
1978-08-25,1487.29167
1978-08-26,1542.75
1978-08-27,1497.375
1978-08-28,1391.5
1978-08-29,1512.5
1978-08-30,1396.54167
1978-08-31,1431.83333
1978-09-01,1522.58333
1978-09-02,1467.125
1978-09-03,1492.33333
1978-09-04,1532.66667
1978-09-05,1593.16667
1978-09-06,1537.70833
1978-09-07,1583.08333
1978-09-08,1396.54167
1978-09-09,1537.70833
1978-09-10,1593.16667
1978-09-11,1527.625
1978-09-12,1527.625
1978-09-13,1547.79167
1978-09-14,1573.0
1978-09-15,1557.875
1978-09-16,1482.25
1978-09-17,1361.25
1978-09-18,1452.0
1978-09-19,1482.25
1978-09-20,1517.54167
1978-09-21,1386.45833
1978-09-22,1502.41667
1978-09-23,1482.25
1978-09-24,1341.08333
1978-09-25,1497.375
1978-09-26,1507.45833
1978-09-27,1502.41667
1978-09-28,1245.29167
1978-09-29,1275.54167
1978-09-30,1300.75
1978-10-01,1275.54167
1978-10-02,1275.54167
1978-10-03,1038.58333
1978-10-04,872.208333
1978-10-05,872.208333
1978-10-06,872.208333
1978-10-07,872.208333
1978-10-08,872.208333
1978-10-09,872.208333
1978-10-10,872.208333
1978-10-11,872.208333
1978-10-12,872.208333
1978-10-13,1018.41667
1978-10-14,1341.08333
1978-10-15,1341.5875
1978-10-16,1225.125
1978-10-17,1310.83333
1978-10-18,1270.5
1978-10-19,1280.58333
1978-10-20,1280.58333
1978-10-21,1280.58333
1978-10-22,1280.58333
1978-10-23,1240.25
1978-10-24,1104.125
1978-10-25,1320.91667
1978-10-26,1245.29167
1978-10-27,1477.20833
1978-10-28,1280.58333
1978-10-29,1531.15417
1978-10-30,1282.09583
1978-10-31,1260.41667
1978-11-01,1336.04167
1978-11-02,1270.5
1978-11-03,1366.29167
1978-11-04,1270.5
1978-11-05,1280.58333
1978-11-06,761.291667
1978-11-07,534.416667
1978-11-08,1071.35417
1978-11-09,1230.16667
1978-11-10,1280.58333
1978-11-11,1280.58333
1978-11-12,1280.58333
1978-11-13,620.125
1978-11-14,201.666667
1978-11-15,831.875
1978-11-16,1210.0
1978-11-17,852.041667
1978-11-18,201.666667
1978-11-19,201.666667
1978-11-20,831.875
1978-11-21,1210.0
1978-11-22,1210.0
1978-11-23,1210.0
1978-11-24,907.5
1978-11-25,504.166667
1978-11-26,504.166667
1978-11-27,917.583333
1978-11-28,1210.0
1978-11-29,1210.0
1978-11-30,1210.0
1978-12-01,1210.0
1978-12-02,1210.0
1978-12-03,1210.0
1978-12-04,1220.08333
1978-12-05,1280.58333
1978-12-06,1608.29167
1978-12-07,1608.29167
1978-12-08,1608.29167
1978-12-09,1593.16667
1978-12-10,1492.33333
1978-12-11,1482.25
1978-12-12,1341.08333
1978-12-13,1255.375
1978-12-14,1351.16667
1978-12-15,1658.70833
1978-12-16,1694.0
1978-12-17,1694.0
1978-12-18,1699.04167
1978-12-19,1588.125
1978-12-20,1532.66667
1978-12-21,1444.4375
1978-12-22,1694.0
1978-12-23,1694.0
1978-12-24,1663.75
1978-12-25,1663.75
1978-12-26,1699.04167
1978-12-27,1699.04167
1978-12-28,1694.0
1978-12-29,1694.0
1978-12-30,1618.375
1978-12-31,1482.25
1979-01-01,1694.0
1979-01-02,1699.04167
1979-01-03,1709.125
1979-01-04,1694.0
1979-01-05,1701.05833
1979-01-06,1694.0
1979-01-07,1697.025
1979-01-08,1694.0
1979-01-09,1694.0
1979-01-10,1694.0
1979-01-11,1688.95833
1979-01-12,1694.0
1979-01-13,1694.0
1979-01-14,1694.0
1979-01-15,1694.0
1979-01-16,1694.0
1979-01-17,1704.08333
1979-01-18,1699.04167
1979-01-19,1749.45833
1979-01-20,1694.0
1979-01-21,1749.45833
1979-01-22,1699.04167
1979-01-23,1694.0
1979-01-24,1694.0
1979-01-25,1694.0
1979-01-26,1694.0
1979-01-27,1694.0
1979-01-28,1694.0
1979-01-29,1694.0
1979-01-30,1709.125
1979-01-31,1729.29167
1979-02-01,1774.66667
1979-02-02,1779.70833
1979-02-03,1774.66667
1979-02-04,1779.70833
1979-02-05,1930.95833
1979-02-06,2006.58333
1979-02-07,2117.5
1979-02-08,2117.5
1979-02-09,2117.5
1979-02-10,2142.70833
1979-02-11,2117.5
1979-02-12,2072.125
1979-02-13,2117.5
1979-02-14,2374.625
1979-02-15,2490.58333
1979-02-16,2621.66667
1979-02-17,2621.66667
1979-02-18,2621.66667
1979-02-19,2621.66667
1979-02-20,2621.66667
1979-02-21,2581.33333
1979-02-22,2621.66667
1979-02-23,2621.66667
1979-02-24,2621.66667
1979-02-25,2621.66667
1979-02-26,2621.66667
1979-02-27,2621.66667
1979-02-28,2621.66667
1979-03-01,2621.66667
1979-03-02,2621.66667
1979-03-03,2581.33333
1979-03-04,2591.41667
1979-03-05,2611.58333
1979-03-06,2621.66667
1979-03-07,2561.16667
1979-03-08,2621.66667
1979-03-09,2621.66667
1979-03-10,2621.66667
1979-03-11,2621.66667
1979-03-12,2601.5
1979-03-13,2621.66667
1979-03-14,2611.58333
1979-03-15,2621.66667
1979-03-16,2621.66667
1979-03-17,2621.66667
1979-03-18,2631.75
1979-03-19,2621.66667
1979-03-20,2621.66667
1979-03-21,2621.66667
1979-03-22,2621.66667
1979-03-23,2611.58333
1979-03-24,2621.66667
1979-03-25,2621.66667
1979-03-26,2621.66667
1979-03-27,2631.75
1979-03-28,2621.66667
1979-03-29,2611.58333
1979-03-30,2621.66667
1979-03-31,2621.66667
1979-04-01,2621.66667
1979-04-02,2621.66667
1979-04-03,2621.66667
1979-04-04,2621.66667
1979-04-05,2621.66667
1979-04-06,2621.66667
1979-04-07,2581.33333
1979-04-08,2561.16667
1979-04-09,2621.66667
1979-04-10,2621.66667
1979-04-11,2621.66667
1979-04-12,2621.66667
1979-04-13,2621.66667
1979-04-14,2621.66667
1979-04-15,2621.66667
1979-04-16,2621.66667
1979-04-17,2591.41667
1979-04-18,2621.66667
1979-04-19,2611.58333
1979-04-20,2621.66667
1979-04-21,2581.33333
1979-04-22,2621.66667
1979-04-23,2611.58333
1979-04-24,2616.625
1979-04-25,2606.54167
1979-04-26,2510.75
1979-04-27,2611.58333
1979-04-28,2621.66667
1979-04-29,2500.66667
1979-04-30,2601.5
1979-05-01,2621.66667
1979-05-02,2591.41667
1979-05-03,2621.66667
1979-05-04,2324.20833
1979-05-05,2551.08333
1979-05-06,2621.66667
1979-05-07,2621.66667
1979-05-08,2535.95833
1979-05-09,2621.66667
1979-05-10,2586.375
1979-05-11,2601.5
1979-05-12,2541.0
1979-05-13,2621.66667
1979-05-14,2581.33333
1979-05-15,2299.0
1979-05-16,2117.5
1979-05-17,2117.5
1979-05-18,2117.5
1979-05-19,2117.5
1979-05-20,2087.25
1979-05-21,2122.54167
1979-05-22,2117.5
1979-05-23,2112.45833
1979-05-24,2107.41667
1979-05-25,2117.5
1979-05-26,2107.41667
1979-05-27,2117.5
1979-05-28,2117.5
1979-05-29,2112.45833
1979-05-30,2051.95833
1979-05-31,2112.45833
1979-06-01,2117.5
1979-06-02,2117.5
1979-06-03,2087.25
1979-06-04,2117.5
1979-06-05,2097.33333
1979-06-06,2117.5
1979-06-07,2107.41667
1979-06-08,2117.5
1979-06-09,2097.33333
1979-06-10,2117.5
1979-06-11,2006.58333
1979-06-12,2016.66667
1979-06-13,857.083333
1979-06-14,1603.25
1979-06-15,2107.41667
1979-06-16,2107.41667
1979-06-17,2117.5
1979-06-18,2077.16667
1979-06-19,2057.0
1979-06-20,2026.75
1979-06-21,2117.5
1979-06-22,2117.5
1979-06-23,2117.5
1979-06-24,2051.95833
1979-06-25,1875.5
1979-06-26,1875.5
1979-06-27,1875.5
1979-06-28,1870.45833
1979-06-29,1875.5
1979-06-30,1870.45833
1979-07-01,1875.5
1979-07-02,1875.5
1979-07-03,2208.25
1979-07-04,2621.66667
1979-07-05,2591.41667
1979-07-06,2082.20833
1979-07-07,2561.16667
1979-07-08,2571.25
1979-07-09,2561.16667
1979-07-10,2525.875
1979-07-11,2379.66667
1979-07-12,2379.66667
1979-07-13,2379.66667
1979-07-14,2379.66667
1979-07-15,2379.66667
1979-07-16,2374.625
1979-07-17,2087.25
1979-07-18,1870.45833
1979-07-19,1875.5
1979-07-20,1865.41667
1979-07-21,1875.5
1979-07-22,1870.45833
1979-07-23,1875.5
1979-07-24,1875.5
1979-07-25,1875.5
1979-07-26,1875.5
1979-07-27,1875.5
1979-07-28,1875.5
1979-07-29,1875.5
1979-07-30,1875.5
1979-07-31,1875.5
1979-08-01,1875.5
1979-08-02,1860.375
1979-08-03,1830.125
1979-08-04,1855.33333
1979-08-05,1850.29167
1979-08-06,1875.5
1979-08-07,1870.45833
1979-08-08,1875.5
1979-08-09,1870.45833
1979-08-10,1875.5
1979-08-11,1870.45833
1979-08-12,1875.5
1979-08-13,1870.45833
1979-08-14,1875.5
1979-08-15,1870.45833
1979-08-16,1875.5
1979-08-17,1875.5
1979-08-18,1875.5
1979-08-19,1870.45833
1979-08-20,1799.875
1979-08-21,1875.5
1979-08-22,1870.45833
1979-08-23,1875.5
1979-08-24,1870.45833
1979-08-25,1875.5
1979-08-26,1870.45833
1979-08-27,1875.5
1979-08-28,1870.45833
1979-08-29,1875.5
1979-08-30,1875.5
1979-08-31,1875.5
1979-09-01,1875.5
1979-09-02,1875.5
1979-09-03,1830.125
1979-09-04,1809.95833
1979-09-05,1875.5
1979-09-06,1875.5
1979-09-07,1875.5
1979-09-08,1875.5
1979-09-09,1875.5
1979-09-10,1875.5
1979-09-11,1875.5
1979-09-12,1870.45833
1979-09-13,1875.5
1979-09-14,1870.45833
1979-09-15,1875.5
1979-09-16,1875.5
1979-09-17,1875.5
1979-09-18,1875.5
1979-09-19,1870.45833
1979-09-20,1875.5
1979-09-21,1870.45833
1979-09-22,1870.45833
1979-09-23,1875.5
1979-09-24,1875.5
1979-09-25,1875.5
1979-09-26,1870.45833
1979-09-27,1875.5
1979-09-28,1875.5
1979-09-29,1875.5
1979-09-30,1875.5
1979-10-01,1875.5
1979-10-02,1875.5
1979-10-03,1875.5
1979-10-04,1416.70833
1979-10-05,1875.5
1979-10-06,1875.5
1979-10-07,1875.5
1979-10-08,1870.45833
1979-10-09,1875.5
1979-10-10,1542.75
1979-10-11,1336.04167
1979-10-12,1532.66667
1979-10-13,1870.45833
1979-10-14,1870.45833
1979-10-15,1875.5
1979-10-16,1336.04167
1979-10-17,1008.33333
1979-10-18,1008.33333
1979-10-19,1008.33333
1979-10-20,1008.33333
1979-10-21,1008.33333
1979-10-22,1008.33333
1979-10-23,844.479167
1979-10-24,756.25
1979-10-25,705.833333
1979-10-26,705.833333
1979-10-27,705.833333
1979-10-28,736.083333
1979-10-29,705.833333
1979-10-30,705.833333
1979-10-31,705.833333
1979-11-01,1114.20833
1979-11-02,1109.16667
1979-11-03,605.0
1979-11-04,605.0
1979-11-05,605.0
1979-11-06,605.0
1979-11-07,1078.91667
1979-11-08,1547.79167
1979-11-09,1547.79167
1979-11-10,1492.33333
1979-11-11,1547.79167
1979-11-12,1547.79167
1979-11-13,892.375
1979-11-14,549.541667
1979-11-15,605.0
1979-11-16,605.0
1979-11-17,605.0
1979-11-18,605.0
1979-11-19,605.0
1979-11-20,605.0
1979-11-21,605.0
1979-11-22,605.0
1979-11-23,605.0
1979-11-24,605.0
1979-11-25,605.0
1979-11-26,605.0
1979-11-27,605.0
1979-11-28,973.041667
1979-11-29,1411.66667
1979-11-30,1411.66667
1979-12-01,1351.16667
1979-12-02,1769.625
1979-12-03,1744.41667
1979-12-04,1754.5
1979-12-05,1769.625
1979-12-06,1779.70833
1979-12-07,1754.5
1979-12-08,1774.66667
1979-12-09,1764.58333
1979-12-10,1759.54167
1979-12-11,1734.33333
1979-12-12,1688.95833
1979-12-13,1694.0
1979-12-14,1694.0
1979-12-15,1694.0
1979-12-16,1694.0
1979-12-17,1678.875
1979-12-18,1694.0
1979-12-19,1688.95833
1979-12-20,1688.95833
1979-12-21,1694.0
1979-12-22,1688.95833
1979-12-23,1694.0
1979-12-24,1688.95833
1979-12-25,1694.0
1979-12-26,1688.95833
1979-12-27,1688.95833
1979-12-28,1653.66667
1979-12-29,1688.95833
1979-12-30,1683.91667
1979-12-31,1688.95833
1980-01-01,1683.91667
1980-01-02,1694.0
1980-01-03,1694.0
1980-01-04,1688.95833
1980-01-05,1694.0
1980-01-06,1694.0
1980-01-07,1694.0
1980-01-08,1694.0
1980-01-09,1694.0
1980-01-10,1694.0
1980-01-11,1694.0
1980-01-12,1694.0
1980-01-13,1694.0
1980-01-14,1694.0
1980-01-15,1694.0
1980-01-16,1280.58333
1980-01-17,1003.29167
1980-01-18,1502.41667
1980-01-19,1694.0
1980-01-20,1694.0
1980-01-21,1688.95833
1980-01-22,1688.95833
1980-01-23,1694.0
1980-01-24,1688.95833
1980-01-25,1688.95833
1980-01-26,1694.0
1980-01-27,1688.95833
1980-01-28,1694.0
1980-01-29,1688.95833
1980-01-30,1688.95833
1980-01-31,1688.95833
1980-02-01,1688.95833
1980-02-02,1688.95833
1980-02-03,1688.95833
1980-02-04,1694.0
1980-02-05,1694.0
1980-02-06,1694.0
1980-02-07,1688.95833
1980-02-08,1694.0
1980-02-09,1688.95833
1980-02-10,1694.0
1980-02-11,1694.0
1980-02-12,1694.0
1980-02-13,1694.0
1980-02-14,1688.95833
1980-02-15,1694.0
1980-02-16,1694.0
1980-02-17,1694.0
1980-02-18,1694.0
1980-02-19,1694.0
1980-02-20,1694.0
1980-02-21,1694.0
1980-02-22,1694.0
1980-02-23,1694.0
1980-02-24,1694.0
1980-02-25,1688.95833
1980-02-26,1683.91667
1980-02-27,1688.95833
1980-02-28,1688.95833
1980-02-29,1688.95833
1980-03-01,1688.95833
1980-03-02,1688.95833
1980-03-03,1688.95833
1980-03-04,1688.95833
1980-03-05,1694.0
1980-03-06,1688.95833
1980-03-07,1996.5
1980-03-08,1991.45833
1980-03-09,1976.33333
1980-03-10,1991.45833
1980-03-11,1991.45833
1980-03-12,1996.5
1980-03-13,1991.45833
1980-03-14,1996.5
1980-03-15,1991.45833
1980-03-16,2092.29167
1980-03-17,1991.45833
1980-03-18,1991.45833
1980-03-19,1996.5
1980-03-20,1996.5
1980-03-21,1996.5
1980-03-22,1996.5
1980-03-23,1991.45833
1980-03-24,1774.66667
1980-03-25,1694.0
1980-03-26,1547.79167
1980-03-27,1441.91667
1980-03-28,1199.91667
1980-03-29,1694.0
1980-03-30,1688.95833
1980-03-31,1694.0
1980-04-01,1890.625
1980-04-02,1895.66667
1980-04-03,1895.66667
1980-04-04,1895.66667
1980-04-05,1895.66667
1980-04-06,1895.66667
1980-04-07,1895.66667
1980-04-08,1895.66667
1980-04-09,1895.66667
1980-04-10,1809.95833
1980-04-11,1905.75
1980-04-12,2198.16667
1980-04-13,2198.16667
1980-04-14,2374.625
1980-04-15,2500.66667
1980-04-16,2500.66667
1980-04-17,2500.66667
1980-04-18,2500.66667
1980-04-19,2500.66667
1980-04-20,2500.66667
1980-04-21,2500.66667
1980-04-22,2490.58333
1980-04-23,2500.66667
1980-04-24,2500.66667
1980-04-25,2500.66667
1980-04-26,2500.66667
1980-04-27,2430.08333
1980-04-28,2500.66667
1980-04-29,2500.66667
1980-04-30,2500.66667
1980-05-01,2500.66667
1980-05-02,2500.66667
1980-05-03,2500.66667
1980-05-04,2500.66667
1980-05-05,2500.66667
1980-05-06,2495.625
1980-05-07,2505.70833
1980-05-08,2581.33333
1980-05-09,2576.29167
1980-05-10,2530.91667
1980-05-11,2697.29167
1980-05-12,2984.66667
1980-05-13,3307.33333
1980-05-14,3307.33333
1980-05-15,3307.33333
1980-05-16,3302.29167
1980-05-17,3307.33333
1980-05-18,3302.29167
1980-05-19,3307.33333